Weather History for CYMX - September, 2013

Change the Weather History Date:

Wednesday, September 11, 2013

  Actual Average Record
Temperature  
Mean Temperature 70 °F -  
Max Temperature 82 °F 69 °F 82 °F (2003)
Min Temperature 59 °F 50 °F 39 °F (2012)
Cooling Degree Days 6    
Growing Degree Days 20 (Base 50)    
Moisture  
Dew Point 65 °F    
Average Humidity 93    
Maximum Humidity 100    
Minimum Humidity 66    
Precipitation  
Precipitation 0.00 in - - ()
Sea Level Pressure  
Sea Level Pressure 29.92 in    
Wind  
Wind Speed 4 mph ()    
Max Wind Speed 10 mph    
Max Gust Speed 24 mph    
Visibility 6.2 miles    
Events Fog , Rain , Thunderstorm    
Averages and records for this station are not official NWS values.
T = Trace of Precipitation, MM = Missing Value Source: Averaged Metar Reports

Daily Weather History Graph

Daily Weather History Graph

Search for Another Location

Airport or City:

Trip Planner

Search our weather history database for the weather conditions in past years. The results will help you decide how hot, cold, wet, or windy it might be!

Date:

Astronomy

Sep. 11, 2013 Rise Set
Actual Time 6:29 AM EDT 7:14 PM EDT
Civil Twilight 5:59 AM EDT 7:44 PM EDT
Nautical Twilight 5:24 AM EDT 8:20 PM EDT
Astronomical Twilight 4:46 AM EDT 8:57 PM EDT
Moon 1:15 PM EDT (9/11) 10:48 PM EDT (9/11)
Length of Visible Light 13h 44m
Length of Day
12h 44m
Waxing Crescent, 38% of the Moon is Illuminated
Sep 11
Waxing Crescent
Sep 12
First Quarter
Sep 19
Full
Sep 26
Last Quarter
Oct 4
New

Hourly Weather History & Observations

Time (EDT) Temp. Heat Index Dew Point Humidity Pressure Visibility Wind Dir Wind Speed Gust Speed Precip Events Conditions
12:00 AM 60.8 °F - 60.8 °F 100% 29.93 in 0.8 mi North 5.8 mph - N/A Thunderstorm Overcast
12:38 AM 60.8 °F - 60.8 °F 100% 29.94 in 2.0 mi ENE 2.3 mph - N/A Thunderstorm Overcast
1:00 AM 60.8 °F - 60.8 °F 100% 29.93 in 1.2 mi NE 4.6 mph - N/A   Overcast
1:24 AM 60.8 °F - 60.8 °F 100% 29.92 in 0.6 mi North 4.6 mph - N/A   Mist
2:00 AM 60.8 °F - 60.8 °F 100% 29.92 in 0.4 mi Variable 2.3 mph - N/A Fog Fog
3:00 AM 60.8 °F - 60.8 °F 100% 29.93 in 0.4 mi ENE 2.3 mph - N/A Fog Fog
3:37 AM 59.0 °F - 59.0 °F 100% 29.91 in 0.5 mi ENE 3.5 mph - N/A Fog Fog
4:00 AM 59.0 °F - 59.0 °F 100% 29.91 in 0.5 mi Calm Calm - N/A Fog Fog
4:50 AM 59.0 °F - 59.0 °F 100% 29.91 in 1.2 mi Calm Calm - N/A   Overcast
5:00 AM 60.8 °F - 60.8 °F 100% 29.93 in 1.8 mi WNW 3.5 mph - N/A   Overcast
5:50 AM 60.8 °F - 60.8 °F 100% 29.94 in 1.2 mi WNW 2.3 mph - N/A   Mist
6:00 AM 60.8 °F - 60.8 °F 100% 29.93 in 0.8 mi Calm Calm - N/A   Mist
6:21 AM 60.8 °F - 60.8 °F 100% 29.93 in 0.4 mi Calm Calm - N/A Fog Fog
7:00 AM 62.6 °F - 62.6 °F 100% 29.95 in 0.4 mi SW 3.5 mph - N/A Fog Fog
8:00 AM 64.4 °F - 64.4 °F 100% 29.96 in 0.5 mi WSW 4.6 mph - N/A Fog Fog
9:00 AM 66.2 °F - 66.2 °F 100% 29.96 in 0.8 mi SW 5.8 mph - N/A   Overcast
10:00 AM 68.0 °F - 68.0 °F 100% 29.95 in 3.0 mi SW 6.9 mph - N/A   Mostly Cloudy
11:00 AM 73.4 °F - 69.8 °F 88% 29.93 in 5.0 mi WSW 10.4 mph - N/A   Haze
12:00 PM 78.8 °F - 71.6 °F 78% 29.92 in 5.0 mi WSW 8.1 mph - N/A   Haze
1:00 PM 82.4 °F 88.2 °F 73.4 °F 74% 29.91 in 10.0 mi WSW 10.4 mph 20.7 mph N/A   Mostly Cloudy
2:00 PM 82.4 °F 87.2 °F 71.6 °F 70% 29.91 in 12.0 mi West 8.1 mph 18.4 mph N/A   Mostly Cloudy
3:00 PM 82.4 °F 86.3 °F 69.8 °F 66% 29.91 in 12.0 mi WNW 9.2 mph 24.2 mph N/A   Mostly Cloudy
4:00 PM 78.8 °F - 69.8 °F 74% 29.90 in 15.0 mi NW 5.8 mph - N/A   Overcast
4:23 PM 77.0 °F - 68.0 °F 74% 29.91 in 15.0 mi NW 8.1 mph 17.3 mph N/A Rain Light Rain Showers
4:35 PM 73.4 °F - 68.0 °F 83% 29.91 in 15.0 mi NW 8.1 mph - N/A Rain , Thunderstorm Light Thunderstorms and Rain
5:00 PM 71.6 °F - 69.8 °F 94% 29.91 in 15.0 mi WSW 3.5 mph - N/A Rain , Thunderstorm Light Thunderstorms and Rain
5:19 PM 71.6 °F - 69.8 °F 94% 29.91 in 15.0 mi West 3.5 mph - N/A   Mostly Cloudy
6:00 PM 73.4 °F - 71.6 °F 94% 29.91 in 15.0 mi WNW 3.5 mph - N/A   Mostly Cloudy
7:00 PM 71.6 °F - 68.0 °F 88% 29.91 in 25.0 mi WSW 2.3 mph - N/A   Mostly Cloudy
8:00 PM 69.8 °F - 68.0 °F 94% 29.91 in 20.0 mi South 3.5 mph - N/A   Mostly Cloudy
9:00 PM 69.8 °F - 68.0 °F 94% 29.93 in 25.0 mi South 2.3 mph - N/A   Mostly Cloudy
10:00 PM 68.0 °F - 68.0 °F 100% 29.91 in 25.0 mi Calm Calm - N/A   Overcast
11:00 PM 66.2 °F - 66.2 °F 100% 29.90 in 15.0 mi Variable 2.3 mph - N/A Fog Shallow Fog